TimePDT,TemperatureF,Dew PointF,Humidity,Sea Level PressureIn,VisibilityMPH,Wind Direction,Wind SpeedMPH,Gust SpeedMPH,PrecipitationIn,Events,Conditions,WindDirDegrees,DateUTC
12:41 AM,42.8,37.4,81,29.83,10.0,North,-9999.0,-,N/A,,Overcast,0,2012-10-28 07:41:00
12:55 AM,43.0,37.9,82,29.84,10.0,North,-9999.0,-,N/A,,Overcast,0,2012-10-28 07:55:00
1:55 AM,41.0,37.0,86,29.83,10.0,Calm,Calm,-,N/A,,Overcast,0,2012-10-28 08:55:00
2:55 AM,39.9,37.9,93,29.83,4.0,Calm,Calm,-,N/A,,Overcast,0,2012-10-28 09:55:00
3:18 AM,41.0,37.4,87,29.80,7.0,Calm,Calm,-,N/A,,Scattered Clouds,0,2012-10-28 10:18:00
3:55 AM,39.9,37.0,89,29.83,7.0,Calm,Calm,-,N/A,,Mostly Cloudy,0,2012-10-28 10:55:00
4:55 AM,42.1,37.9,85,29.83,10.0,Calm,Calm,-,N/A,,Overcast,0,2012-10-28 11:55:00
5:04 AM,41.0,37.4,87,29.81,10.0,Calm,Calm,-,N/A,,Overcast,0,2012-10-28 12:04:00
5:55 AM,42.1,39.0,89,29.84,10.0,Calm,Calm,-,N/A,,Overcast,0,2012-10-28 12:55:00
6:53 AM,42.8,37.4,81,29.83,10.0,Calm,Calm,-,N/A,,Overcast,0,2012-10-28 13:53:00
6:55 AM,42.1,39.0,89,29.84,10.0,Calm,Calm,-,N/A,,Overcast,0,2012-10-28 13:55:00
7:55 AM,42.1,39.0,89,29.86,8.0,WNW,3.5,-,N/A,,Overcast,300,2012-10-28 14:55:00
8:55 AM,42.1,39.0,89,29.89,4.0,Calm,Calm,-,N/A,,Overcast,0,2012-10-28 15:55:00
9:21 AM,42.8,39.2,87,29.88,1.8,NW,3.5,-,N/A,,Overcast,310,2012-10-28 16:21:00
9:43 AM,41.0,39.2,93,29.89,0.8,Calm,Calm,-,N/A,,Overcast,0,2012-10-28 16:43:00
9:55 AM,41.0,39.0,93,29.91,0.8,WNW,4.6,-,N/A,,Mist,300,2012-10-28 16:55:00
10:43 AM,42.8,39.2,87,29.89,0.2,WSW,3.5,-,N/A,Fog,Fog,250,2012-10-28 17:43:00
10:55 AM,41.0,39.0,93,29.92,0.2,NW,3.5,-,N/A,Fog,Fog,310,2012-10-28 17:55:00
11:02 AM,42.8,39.2,87,29.90,0.5,Calm,Calm,-,N/A,Fog,Fog,0,2012-10-28 18:02:00
11:16 AM,42.8,39.2,87,29.90,1.5,Calm,Calm,-,N/A,,Overcast,0,2012-10-28 18:16:00
11:24 AM,42.8,39.2,87,29.90,3.0,Calm,Calm,-,N/A,,Overcast,0,2012-10-28 18:24:00
11:55 AM,43.0,41.0,93,29.93,2.5,Calm,Calm,-,N/A,,Overcast,0,2012-10-28 18:55:00
12:12 PM,42.8,41.0,93,29.90,1.2,Calm,Calm,-,N/A,,Overcast,0,2012-10-28 19:12:00
12:25 PM,42.8,41.0,93,29.90,2.0,SW,3.5,-,N/A,,Overcast,230,2012-10-28 19:25:00
12:34 PM,42.8,41.0,93,29.90,1.0,Calm,Calm,-,N/A,,Overcast,0,2012-10-28 19:34:00
12:41 PM,42.8,41.0,93,29.90,0.5,West,3.5,-,N/A,Fog,Fog,270,2012-10-28 19:41:00
12:55 PM,44.1,41.0,89,29.91,1.0,Calm,Calm,-,N/A,,Overcast,0,2012-10-28 19:55:00
1:11 PM,44.6,41.0,87,29.90,0.5,Calm,Calm,-,N/A,Fog,Fog,0,2012-10-28 20:11:00
1:27 PM,44.6,42.8,93,29.89,2.0,Calm,Calm,-,N/A,,Overcast,0,2012-10-28 20:27:00
1:52 PM,46.4,42.8,87,29.89,4.0,Calm,Calm,-,N/A,,Overcast,0,2012-10-28 20:52:00
1:55 PM,46.0,43.0,89,29.90,4.0,Calm,Calm,-,N/A,,Overcast,0,2012-10-28 20:55:00
2:28 PM,48.2,44.6,87,29.89,7.0,Calm,Calm,-,N/A,,Scattered Clouds,0,2012-10-28 21:28:00
2:55 PM,50.0,44.1,80,29.89,9.0,SSE,4.6,-,N/A,,Clear,160,2012-10-28 21:55:00
3:55 PM,50.0,44.1,80,29.90,10.0,North,-9999.0,-,N/A,,Clear,0,2012-10-28 22:55:00
4:55 PM,50.0,45.0,83,29.89,7.0,East,4.6,-,N/A,,Mostly Cloudy,90,2012-10-28 23:55:00
5:55 PM,50.0,45.0,83,29.90,8.0,East,8.1,-,N/A,,Overcast,80,2012-10-29 00:55:00
6:55 PM,48.9,45.0,86,29.90,8.0,East,4.6,-,N/A,,Overcast,80,2012-10-29 01:55:00
7:55 PM,48.9,46.0,90,29.90,7.0,East,3.5,-,N/A,,Overcast,90,2012-10-29 02:55:00
8:55 PM,48.9,45.0,86,29.89,6.0,Calm,Calm,-,0.00,Rain,Light Rain,0,2012-10-29 03:55:00
9:55 PM,48.0,45.0,89,29.88,4.0,Calm,Calm,-,0.00,Rain,Light Rain,0,2012-10-29 04:55:00
10:55 PM,48.0,45.0,89,29.86,4.0,South,3.5,-,0.01,Rain,Light Rain,190,2012-10-29 05:55:00
11:24 PM,48.2,44.6,87,29.85,7.0,Calm,Calm,-,0.01,Rain,Light Rain,0,2012-10-29 06:24:00
11:32 PM,48.2,44.6,87,29.85,9.0,Calm,Calm,-,0.01,Rain,Light Rain,0,2012-10-29 06:32:00
11:55 PM,48.0,45.0,89,29.86,7.0,Calm,Calm,-,0.01,Rain,Light Rain,0,2012-10-29 06:55:00